sat.trackr.live / text

‹ back to catalog

COSMOS 2481

NORAD 38733 · 2012-041A

PAYLOAD ACTIVE UNKNOWN

§ Identity

Operator
Country
CIS
Launch date
2012-07-28
Launch site
PLMSC
Launch vehicle
Mass (kg)
RCS (m²)
0.90

External: N2YO · Heavens-Above · Gunter

§ Orbital elements

Epoch: 2026-09-15T23:15:45.908640Z

Period
115.90 min
Inclination
82.4795°
Eccentricity
0.0018116
Mean motion
12.42436764 rev/d
Perigee alt
1,482.0 km
Apogee alt
1,510.6 km
Semi-major
7,874.4 km
B*
4.6205e-4
RAAN
18.6111°
Arg perigee
236.2934°
Mean anomaly
123.6419°
Rev number
64,102

§ Raw data

COSMOS 24811 38733U 12041A   26258.96928135  .00000073  00000+0  46205-3 0  99972 38733  82.4795  18.6111 0018116 236.2934 123.6419 12.42436764641023

JSON: /api/v1/satellites/38733 · /tle

For live sub-satellite position, see the globe view (requires WebGL).

§ Visibility from observer

Set your observer location to see the next 7 days of passes ≥ 10°. The values pass through the URL so the page stays shareable.

No JS? Fill the form by hand. The geolocation button needs JavaScript.